TimeCST,TemperatureF,Dew PointF,Humidity,Sea Level PressureIn,VisibilityMPH,Wind Direction,Wind SpeedMPH,Gust SpeedMPH,PrecipitationIn,Events,Conditions,WindDirDegrees,DateUTC
12:53 AM,19.0,12.9,77,30.43,10.0,Calm,Calm,-,N/A,,Clear,0,2012-12-30 06:53:00
1:53 AM,19.9,12.9,74,30.44,10.0,Calm,Calm,-,N/A,,Clear,0,2012-12-30 07:53:00
2:53 AM,17.1,12.0,81,30.45,10.0,Calm,Calm,-,N/A,,Clear,0,2012-12-30 08:53:00
3:53 AM,18.0,12.9,81,30.45,10.0,Calm,Calm,-,N/A,,Clear,0,2012-12-30 09:53:00
4:53 AM,17.1,12.9,84,30.43,10.0,Calm,Calm,-,N/A,,Clear,0,2012-12-30 10:53:00
5:53 AM,17.1,12.9,84,30.43,10.0,Calm,Calm,-,N/A,,Clear,0,2012-12-30 11:53:00
6:53 AM,18.0,14.0,84,30.43,10.0,Calm,Calm,-,N/A,,Clear,0,2012-12-30 12:53:00
7:53 AM,19.9,14.0,78,30.44,10.0,Calm,Calm,-,N/A,,Clear,0,2012-12-30 13:53:00
8:53 AM,26.1,19.0,75,30.45,10.0,Calm,Calm,-,N/A,,Clear,0,2012-12-30 14:53:00
9:53 AM,30.9,21.9,69,30.43,10.0,SSE,3.5,-,N/A,,Clear,150,2012-12-30 15:53:00
10:53 AM,39.0,24.1,55,30.43,10.0,South,6.9,-,N/A,,Clear,170,2012-12-30 16:53:00
11:53 AM,42.1,19.9,41,30.40,10.0,South,15.0,23.0,N/A,,Clear,180,2012-12-30 17:53:00
12:53 PM,43.0,19.0,38,30.36,10.0,South,16.1,25.3,N/A,,Clear,190,2012-12-30 18:53:00
1:53 PM,44.1,19.9,38,30.34,10.0,South,8.1,-,N/A,,Clear,190,2012-12-30 19:53:00
2:53 PM,43.0,18.0,37,30.31,10.0,SSW,13.8,-,N/A,,Clear,200,2012-12-30 20:53:00
3:53 PM,43.0,18.0,37,30.31,10.0,South,10.4,-,N/A,,Clear,180,2012-12-30 21:53:00
4:53 PM,42.1,16.0,35,30.29,10.0,South,8.1,-,N/A,,Clear,180,2012-12-30 22:53:00
5:53 PM,41.0,17.1,38,30.29,10.0,SSE,9.2,-,N/A,,Clear,160,2012-12-30 23:53:00
6:53 PM,39.9,16.0,38,30.27,10.0,South,6.9,-,N/A,,Clear,170,2012-12-31 00:53:00
7:53 PM,39.0,18.0,43,30.26,10.0,South,10.4,-,N/A,,Clear,170,2012-12-31 01:53:00
8:53 PM,39.0,19.0,45,30.26,10.0,South,10.4,-,N/A,,Clear,170,2012-12-31 02:53:00
9:53 PM,39.0,19.0,45,30.24,10.0,South,10.4,-,N/A,,Clear,170,2012-12-31 03:53:00
10:53 PM,39.0,21.0,49,30.21,10.0,South,12.7,-,N/A,,Partly Cloudy,170,2012-12-31 04:53:00
11:53 PM,37.9,28.9,70,30.23,10.0,South,6.9,-,0.00,Rain,Light Rain,190,2012-12-31 05:53:00